Weather History for KJAS - November, 2013

Change the Weather History Date:

Sunday, November 17, 2013

  Actual Average (KLFK) Record (KLFK)
Temperature  
Mean Temperature 78 °F 58 °F  
Max Temperature 85 °F 69 °F 87 °F (2013)
Min Temperature 70 °F 47 °F 26 °F (1997)
Degree Days  
Heating Degree Days 0 8  
Month to date heating degree days 106  
Since 1 July heating degree days 172  
Cooling Degree Days 12 1  
Month to date cooling degree days 27  
Year to date cooling degree days 2571  
Growing Degree Days 28 (Base 50)    
Moisture  
Dew Point 72 °F    
Average Humidity 89    
Maximum Humidity 97    
Minimum Humidity 66    
Precipitation  
Precipitation 0.06 in 0.17 in 4.18 in (2004)
Month to date precipitation 2.94  
Year to date precipitation 42.44  
Snow  
Snow 0.00 in - - ()
Month to date snowfall  
Since 1 July snowfall  
Since 1 September snowfall  
Snow Depth -    
Sea Level Pressure  
Sea Level Pressure 29.90 in    
Wind  
Wind Speed 7 mph (South)    
Max Wind Speed 15 mph    
Max Gust Speed 23 mph    
Visibility 6 miles    
Events Fog , Rain    
T = Trace of Precipitation, MM = Missing Value Source: NWS Daily Summary

Daily Weather History Graph

Daily Weather History Graph

Search for Another Location

Airport or City:

Trip Planner

Search our weather history database for the weather conditions in past years. The results will help you decide how hot, cold, wet, or windy it might be!

Date:

Astronomy

Nov. 17, 2013 Rise Set
Actual Time 6:44 AM CST 5:17 PM CST
Civil Twilight 6:19 AM CST 5:43 PM CST
Nautical Twilight 5:49 AM CST 6:12 PM CST
Astronomical Twilight 5:21 AM CST 6:41 PM CST
Moon 5:34 PM CST (11/17) 6:40 AM CST (11/17)
Length of Visible Light 11h 23m
Length of Day
10h 32m
Full, 100% of the Moon is Illuminated
Nov 17
Full
Nov 25
Last Quarter
Dec 2
New
Dec 9
First Quarter
Dec 17
Full

Hourly Weather History & Observations

Time (CST) Temp. Heat Index Dew Point Humidity Pressure Visibility Wind Dir Wind Speed Gust Speed Precip Events Conditions
12:15 AM 72.1 °F - 70.2 °F 93% 29.88 in 7.0 mi SSE 9.2 mph - N/A   Overcast
12:35 AM 72.1 °F - 70.2 °F 93% 29.88 in 10.0 mi South 8.1 mph - 0.02 in   Overcast
12:55 AM 72.1 °F - 70.2 °F 93% 29.87 in 7.0 mi SSE 9.2 mph - 0.03 in Rain Light Rain
1:15 AM 72.1 °F - 70.3 °F 94% 29.87 in 7.0 mi South 6.9 mph 16.1 mph N/A   Light Drizzle
1:35 AM 72.1 °F - 70.3 °F 94% 29.86 in 7.0 mi SSE 5.8 mph - N/A Rain Rain
1:55 AM 72.5 °F - 70.5 °F 93% 29.86 in 7.0 mi South 6.9 mph - N/A   Drizzle
2:15 AM 72.3 °F - 70.5 °F 94% 29.86 in 5.0 mi South 4.6 mph - 0.01 in Rain Heavy Rain
2:35 AM 72.0 °F - 70.5 °F 95% 29.87 in 7.0 mi South 5.8 mph - 0.01 in Rain Light Rain
2:55 AM 72.0 °F - 70.7 °F 96% 29.86 in 10.0 mi South 5.8 mph - 0.01 in   Overcast
3:15 AM 72.1 °F - 70.7 °F 95% 29.85 in 10.0 mi South 9.2 mph - N/A   Overcast
3:35 AM 72.3 °F - 70.7 °F 95% 29.86 in 10.0 mi South 9.2 mph - N/A   Overcast
3:55 AM 72.5 °F - 70.7 °F 94% 29.86 in 10.0 mi South 8.1 mph - N/A   Overcast
4:15 AM 72.5 °F - 70.9 °F 95% 29.86 in 10.0 mi South 8.1 mph - N/A   Overcast
4:35 AM 72.7 °F - 71.1 °F 95% 29.87 in 7.0 mi South 5.8 mph - N/A Rain Light Rain
4:55 AM 72.7 °F - 71.1 °F 95% 29.87 in 5.0 mi SSW 5.8 mph - 0.01 in Rain Light Rain
5:15 AM 72.7 °F - 71.2 °F 95% 29.86 in 7.0 mi South 8.1 mph - 0.01 in   Light Drizzle
5:35 AM 72.7 °F - 71.2 °F 95% 29.86 in 7.0 mi South 6.9 mph - 0.01 in Rain Light Rain
5:55 AM 72.9 °F - 71.4 °F 95% 29.86 in 7.0 mi South 8.1 mph - 0.01 in Rain Light Rain
6:15 AM 72.9 °F - 71.6 °F 96% 29.87 in 7.0 mi South 8.1 mph - N/A   Overcast
6:35 AM 73.0 °F - 71.6 °F 95% 29.87 in 7.0 mi South 9.2 mph - N/A   Overcast
6:55 AM 73.4 °F - 71.6 °F 94% 29.88 in 7.0 mi South 6.9 mph - N/A   Overcast
7:15 AM 73.4 °F - 71.6 °F 94% 29.89 in 5.0 mi South 6.9 mph - N/A   Overcast
7:35 AM 73.4 °F - 71.8 °F 95% 29.90 in 5.0 mi South 8.1 mph - N/A   Overcast
7:55 AM 73.4 °F - 71.8 °F 95% 29.90 in 5.0 mi South 5.8 mph - N/A   Overcast
8:15 AM 73.6 °F - 72.0 °F 95% 29.91 in 5.0 mi South 4.6 mph - N/A   Overcast
8:35 AM 73.8 °F - 72.1 °F 95% 29.92 in 5.0 mi South 4.6 mph - N/A   Overcast
8:55 AM 74.1 °F - 72.3 °F 94% 29.92 in 7.0 mi South 6.9 mph - N/A   Overcast
9:15 AM 74.5 °F - 72.5 °F 94% 29.92 in 7.0 mi South 6.9 mph - N/A   Overcast
9:35 AM 75.0 °F - 72.9 °F 93% 29.92 in 7.0 mi South 10.4 mph - N/A   Overcast
9:55 AM 76.3 °F - 73.4 °F 91% 29.93 in 7.0 mi South 11.5 mph - N/A   Overcast
10:15 AM 77.0 °F - 73.6 °F 89% 29.93 in 7.0 mi South 9.2 mph - N/A   Overcast
10:35 AM 77.2 °F - 73.6 °F 89% 29.92 in 7.0 mi SSW 6.9 mph - N/A   Overcast
10:55 AM 77.4 °F - 73.8 °F 89% 29.91 in 7.0 mi SSW 6.9 mph - N/A   Overcast
11:15 AM 79.7 °F - 74.5 °F 84% 29.90 in 7.0 mi SSW 9.2 mph - N/A   Mostly Cloudy
11:35 AM 80.6 °F 85.5 °F 73.9 °F 80% 29.90 in 7.0 mi SSW 11.5 mph - N/A   Mostly Cloudy
11:55 AM 80.6 °F 85.5 °F 73.8 °F 80% 29.88 in 10.0 mi SSW 13.8 mph - N/A   Mostly Cloudy
12:15 PM 82.8 °F 88.7 °F 73.4 °F 73% 29.88 in 10.0 mi SSW 15.0 mph 23.0 mph N/A   Scattered Clouds
12:35 PM 83.8 °F 90.1 °F 73.0 °F 70% 29.87 in 10.0 mi SSW 8.1 mph 20.7 mph N/A   Scattered Clouds
12:55 PM 83.7 °F 89.7 °F 72.9 °F 70% 29.86 in 10.0 mi South 12.7 mph 17.3 mph N/A   Scattered Clouds
1:15 PM 84.2 °F 90.6 °F 72.9 °F 69% 29.85 in 10.0 mi SSW 13.8 mph 20.7 mph N/A   Mostly Cloudy
1:35 PM 84.4 °F 90.3 °F 72.5 °F 67% 29.85 in 10.0 mi SSW 15.0 mph 18.4 mph N/A   Scattered Clouds
1:55 PM 85.1 °F 91.5 °F 72.7 °F 66% 29.85 in 10.0 mi SSW 12.7 mph 20.7 mph N/A   Scattered Clouds
2:15 PM 84.6 °F 90.7 °F 72.5 °F 67% 29.85 in 10.0 mi SW 6.9 mph 10.4 mph N/A   Mostly Cloudy
2:35 PM 84.6 °F 90.7 °F 72.7 °F 67% 29.85 in 10.0 mi SW 8.1 mph - N/A   Overcast
2:55 PM 84.0 °F 90.2 °F 72.7 °F 69% 29.85 in 10.0 mi SW 4.6 mph - N/A   Overcast
3:15 PM 83.1 °F 88.9 °F 73.0 °F 71% 29.86 in 10.0 mi SSW 4.6 mph - N/A   Overcast
3:35 PM 82.8 °F 88.7 °F 73.2 °F 73% 29.86 in 10.0 mi SSW 4.6 mph - N/A   Mostly Cloudy
3:55 PM 82.9 °F 89.1 °F 73.6 °F 73% 29.86 in 10.0 mi SW 3.5 mph - N/A   Scattered Clouds
4:15 PM 82.2 °F 88.0 °F 73.8 °F 75% 29.86 in 10.0 mi South 3.5 mph - N/A   Scattered Clouds
4:35 PM 81.5 °F 87.2 °F 73.9 °F 78% 29.87 in 10.0 mi South 3.5 mph - N/A   Clear
4:55 PM 80.4 °F 85.3 °F 74.1 °F 81% 29.88 in 10.0 mi South 4.6 mph - N/A   Scattered Clouds
5:15 PM 79.3 °F - 73.8 °F 83% 29.88 in 7.0 mi Calm Calm - N/A   Clear
5:35 PM 77.4 °F - 73.2 °F 87% 29.89 in 5.0 mi Calm Calm - N/A   Scattered Clouds
5:55 PM 74.7 °F - 72.1 °F 92% 29.90 in 4.0 mi Calm Calm - N/A   Scattered Clouds
6:15 PM 73.2 °F - 71.4 °F 94% 29.91 in 2.5 mi Calm Calm - N/A   Clear
6:35 PM 72.3 °F - 70.9 °F 95% 29.92 in 2.0 mi Calm Calm - N/A   Clear
6:55 PM 72.0 °F - 70.9 °F 96% 29.92 in 1.2 mi Calm Calm - N/A   Mist
7:15 PM 71.4 °F - 70.2 °F 96% 29.93 in 1.2 mi Calm Calm - N/A   Mist
7:35 PM 71.1 °F - 69.8 °F 96% 29.93 in 0.5 mi Calm Calm - N/A Fog Fog
7:55 PM 70.2 °F - 68.9 °F 96% 29.93 in 2.5 mi South 3.5 mph - N/A   Clear
8:15 PM 71.1 °F - 70.2 °F 97% 29.93 in 4.0 mi South 3.5 mph - N/A   Clear
8:35 PM 72.0 °F - 70.9 °F 96% 29.94 in 3.0 mi Calm Calm - N/A   Clear
8:55 PM 71.8 °F - 70.7 °F 96% 29.95 in 1.0 mi Calm Calm - N/A   Mist
9:15 PM 71.4 °F - 70.3 °F 96% 29.95 in 0.8 mi Calm Calm - N/A   Mist
9:35 PM 71.2 °F - 70.0 °F 96% 29.95 in 0.2 mi Calm Calm - N/A Fog Fog
9:55 PM 71.2 °F - 70.2 °F 96% 29.96 in 0.5 mi Calm Calm - N/A Fog Fog
10:15 PM 71.4 °F - 70.3 °F 96% 29.96 in 1.2 mi Calm Calm - N/A   Overcast
10:35 PM 71.4 °F - 70.2 °F 96% 29.97 in 1.8 mi Calm Calm - N/A   Overcast
10:55 PM 72.1 °F - 71.1 °F 96% 29.97 in 2.5 mi Calm Calm - N/A   Overcast
11:15 PM 72.1 °F - 71.1 °F 96% 29.98 in 2.5 mi Calm Calm - N/A   Overcast
11:35 PM 72.1 °F - 71.1 °F 96% 29.98 in 3.0 mi SSW 3.5 mph - N/A   Overcast
11:55 PM 72.1 °F - 71.1 °F 96% 29.98 in 2.5 mi Calm Calm - N/A   Overcast